Milan, Italy

8:08 AM CEST on June 28, 2017 (GMT +0200)
Malpensa

Weather History for LIMC - December, 2013

Change the Weather History Date:

Friday, December 6, 2013

  Actual Average Record
Temperature  
Mean Temperature 38 °F -  
Max Temperature 55 °F 44 °F 60 °F (2003)
Min Temperature 21 °F 26 °F 19 °F (1998)
Degree Days  
Heating Degree Days 27    
Moisture  
Dew Point 31 °F    
Average Humidity 80    
Maximum Humidity 100    
Minimum Humidity 44    
Precipitation  
Precipitation 0.00 in 0.08 in - ()
Sea Level Pressure  
Sea Level Pressure 29.94 in    
Wind  
Wind Speed 3 mph ()    
Max Wind Speed 10 mph    
Max Gust Speed -    
Averages and records for this station are not official NWS values.
T = Trace of Precipitation, MM = Missing Value Source: Averaged Metar Reports

Daily Weather History Graph

Daily Weather History Graph

Search for Another Location

Airport or City:

Trip Planner

Search our weather history database for the weather conditions in past years. The results will help you decide how hot, cold, wet, or windy it might be!

Date:

Astronomy

Dec. 06, 2013 Rise Set
Actual Time 7:50 AM CET 4:41 PM CET
Civil Twilight 7:16 AM CET 5:15 PM CET
Nautical Twilight 6:39 AM CET 5:52 PM CET
Astronomical Twilight 6:03 AM CET 6:28 PM CET
Moon 10:38 AM CET (12/6) 9:01 PM CET (12/6)
Length of Visible Light 9h 58m
Length of Day
8h 50m
Waxing Crescent, 17% of the Moon is Illuminated
Dec 6
Waxing Crescent
Dec 9
First Quarter
Dec 17
Full
Dec 25
Last Quarter
Jan 1
New

Hourly Weather History & Observations

Time (CET) Temp. Windchill Dew Point Humidity Pressure Visibility Wind Dir Wind Speed Gust Speed Precip Events Conditions
12:20 AM 26.6 °F - 24.8 °F 93% 30.04 in - Variable 2.3 mph - N/A   Clear
12:50 AM 24.8 °F - 24.8 °F 100% 30.01 in - Variable 1.2 mph - N/A   Clear
1:20 AM 23.0 °F - 21.2 °F 93% 30.01 in - Calm Calm - N/A   Clear
1:50 AM 23.0 °F - 21.2 °F 93% 30.01 in - Variable 2.3 mph - N/A   Clear
2:20 AM 21.2 °F - 19.4 °F 93% 29.98 in - Variable 2.3 mph - N/A   Clear
2:50 AM 23.0 °F - 21.2 °F 93% 29.98 in - Variable 1.2 mph - N/A   Clear
3:20 AM 23.0 °F - 23.0 °F 100% 29.98 in - Variable 2.3 mph - N/A   Clear
3:50 AM 23.0 °F - 21.2 °F 93% 29.95 in - North 2.3 mph - N/A   Clear
4:20 AM 23.0 °F - 21.2 °F 93% 29.95 in - Variable 2.3 mph - N/A   Clear
4:50 AM 23.0 °F 18.4 °F 21.2 °F 93% 29.95 in - North 3.5 mph - N/A   Clear
5:20 AM 24.8 °F 19.1 °F 24.8 °F 100% 29.92 in - North 4.6 mph - N/A   Clear
5:50 AM 26.6 °F 19.1 °F 24.8 °F 93% 29.92 in - North 6.9 mph - N/A   Clear
6:20 AM 26.6 °F 21.2 °F 26.6 °F 100% 29.92 in - North 4.6 mph - N/A   Clear
6:50 AM 24.8 °F 17.9 °F 24.8 °F 100% 29.92 in - North 5.8 mph - N/A   Clear
7:20 AM 30.2 °F 23.4 °F 28.4 °F 93% 29.92 in - North 6.9 mph - N/A   Clear
7:50 AM 30.2 °F 23.4 °F 28.4 °F 93% 29.92 in - North 6.9 mph - N/A   Clear
8:20 AM 32.0 °F 24.8 °F 30.2 °F 93% 29.92 in - North 8.1 mph - N/A   Clear
8:50 AM 32.0 °F 27.5 °F 30.2 °F 93% 29.92 in - NNW 4.6 mph - N/A   Clear
9:20 AM 35.6 °F 31.7 °F 32.0 °F 87% 29.92 in - North 4.6 mph - N/A   Clear
9:50 AM 41.0 °F 37.1 °F 35.6 °F 81% 29.92 in - North 5.8 mph - N/A   Clear
10:20 AM 46.4 °F - 37.4 °F 71% 29.92 in - Variable 2.3 mph - N/A   Clear
10:50 AM 50.0 °F - 30.2 °F 47% 29.92 in - WSW 3.5 mph - N/A   Clear
11:20 AM 50.0 °F - 30.2 °F 47% 29.92 in - WSW 5.8 mph - N/A   Clear
11:50 AM 51.8 °F - 33.8 °F 50% 29.89 in - WSW 6.9 mph - N/A   Clear
12:20 PM 51.8 °F - 32.0 °F 47% 29.89 in - SW 8.1 mph - N/A   Clear
12:50 PM 53.6 °F - 32.0 °F 44% 29.89 in - SW 6.9 mph - N/A   Clear
1:20 PM 55.4 °F - 33.8 °F 44% 29.89 in - SW 9.2 mph - N/A   Clear
1:50 PM 55.4 °F - 35.6 °F 47% 29.89 in - SW 8.1 mph - N/A   Clear
2:20 PM 55.4 °F - 37.4 °F 51% 29.86 in - SW 10.4 mph - N/A   Clear
2:50 PM 55.4 °F - 37.4 °F 51% 29.89 in - WSW 4.6 mph - N/A   Clear
3:20 PM 55.4 °F - 39.2 °F 54% 29.89 in - SW 8.1 mph - N/A   Clear
3:50 PM 53.6 °F - 39.2 °F 58% 29.89 in - Variable 2.3 mph - N/A   Clear
4:20 PM 50.0 °F - 39.2 °F 66% 29.89 in - SW 5.8 mph - N/A   Clear
4:50 PM 48.2 °F - 39.2 °F 71% 29.92 in - ESE 3.5 mph - N/A   Clear
5:20 PM 46.4 °F - 37.4 °F 71% 29.92 in - Variable 2.3 mph - N/A   Clear
5:50 PM 44.6 °F 42.2 °F 39.2 °F 81% 29.92 in - East 4.6 mph - N/A   Clear
6:20 PM 41.0 °F - 35.6 °F 81% 29.95 in - Variable 1.2 mph - N/A   Clear
6:50 PM 39.2 °F - 33.8 °F 81% 29.95 in - Variable 2.3 mph - N/A   Clear
7:20 PM 37.4 °F 34.9 °F 33.8 °F 87% 29.95 in - WNW 3.5 mph - N/A   Clear
7:50 PM 39.2 °F 37.0 °F 35.6 °F 87% 29.95 in - Variable 3.5 mph - N/A   Clear
8:20 PM 37.4 °F - 35.6 °F 93% 29.98 in - Variable 2.3 mph - N/A   Clear
8:50 PM 33.8 °F - 32.0 °F 93% 29.98 in - Variable 2.3 mph - N/A   Clear
9:20 PM 35.6 °F 31.7 °F 33.8 °F 93% 30.01 in - Variable 4.6 mph - N/A   Clear
9:50 PM 42.8 °F - 39.2 °F 87% 30.01 in - Variable 2.3 mph - N/A   Clear
10:20 PM 37.4 °F - 35.6 °F 93% 30.01 in - Variable 2.3 mph - N/A   Clear
10:50 PM 35.6 °F 32.8 °F 32.0 °F 87% 30.04 in - NNW 3.5 mph - N/A   Clear
11:20 PM 33.8 °F 30.8 °F 33.8 °F 100% 30.04 in - Variable 3.5 mph - N/A   Clear
11:50 PM 32.0 °F 27.5 °F 32.0 °F 100% 30.04 in - NNW 4.6 mph - N/A   Clear